Location: Newark
(41.0400°S, 62.7845°W)
Time: 08:35:21
(UTC+00:00)

Vanguard 2 Rocket - Pass Details

Date: 05 December 2021
Orbit: 553 x 3325 km, 32.9° (Epoch: 24 January)

Event Time Altitude Azimuth Distance (km) Brightness Sun altitude
Rises 04:50:40 0° 2° (N) 7,045 - -25.6°
Reaches altitude 10° 05:00:21 10° 26° (NNE) 6,266 - -25.1°
Exits shadow 05:00:50 10° 27° (NNE) 6,239 10.7 -25.1°
Maximum altitude 05:07:02 13° 46° (NE) 6,030 10.8 -24.8°
Drops below altitude 10° 05:13:30 10° 66° (ENE) 6,103 11.0 -24.4°
Sets 05:22:18 0° 89° (E) 6,698 11.6 -23.9°
